Temp
17 17 17 17 17 17 17 17 17 17 16 16 16 16 16 16 16 16 16 16 16 16 16 15 15 15 14 14 15 15 14 14 14 14 14 13 13 13 13 13 12 12 12 11 11 11 11 10 10 10 9 9 9 10 10 11 11 12 11 11 11 10 10 10 8 5 5 6 6 5 5 5 4 4 4 3 3 2 1 1 1 1 1 1 1
17 16 17 17 16 17 17 16 16 16 16 16 16 16 16 16 16 16 16 16 16 16 16 15 15 14 14 14 14 14 14 14 14 14 13 13 13 13 13 12 12 12 11 11 10 10 10 10 10 9 8 8 9 9 10 11 11 11 11 11 10 10 10 10 8 6 5 4 4 4 4 4 3 3 3 3 2 1 1 1 1 1 0 0 0
16 15 16 16 16 16 16 16 16 16 16 16 16 16 16 16 16 16 16 16 16 16 15 15 15 14 14 14 14 14 14 14 14 14 13 13 13 13 12 12 12 11 11 11 10 10 9 9 9 8 8 8 8 9 10 11 11 11 10 10 10 9 9 9 8 7 5 4 4 4 3 3 3 2 2 2 1 1 1 1 1 1 0 -0 -1
15 15 15 15 15 15 15 16 16 16 16 16 16 16 16 16 16 16 16 16 16 16 15 15 15 14 14 14 14 14 13 13 13 13 13 13 13 13 12 12 11 11 11 11 11 10 9 9 8 8 7 7 7 9 10 10 10 10 10 9 9 9 8 8 8 7 6 4 3 3 3 2 2 1 1 0 1 1 1 1 1 1 0 -1 -1
14 14 14 15 15 15 15 15 15 15 15 16 16 16 16 16 16 16 16 16 15 15 15 15 15 14 14 14 14 14 13 13 13 13 13 13 13 13 12 12 11 11 11 11 10 10 9 8 7 7 7 7 8 9 9 10 10 9 9 9 8 8 8 7 7 7 6 5 3 2 2 2 1 0 -0 -0 1 1 1 1 1 1 0 -1 -1
13 13 13 14 14 14 14 14 15 15 15 15 15 15 15 15 15 15 15 15 15 15 15 14 14 14 14 14 14 13 13 12 12 12 12 12 12 12 12 11 11 10 10 10 10 9 8 7 7 6 7 7 8 9 9 9 9 9 9 8 8 7 7 6 6 6 5 5 4 2 1 1 1 -0 -1 -1 0 1 1 1 1 -0 -1 -1 -1
11 12 12 13 13 13 13 13 14 14 14 14 14 14 14 14 14 15 15 15 15 15 14 14 14 14 14 14 14 13 13 12 12 12 12 12 12 12 11 10 10 10 10 10 9 8 7 6 6 6 7 8 10 10 10 9 9 9 8 8 7 7 6 5 5 5 4 4 3 2 1 1 0 -0 -1 -1 -1 0 1 1 1 -0 -1 -1 -1
10 11 11 11 12 12 13 13 13 13 13 13 13 13 13 13 13 13 14 14 14 14 14 14 14 14 14 14 13 13 13 12 11 11 11 11 11 11 10 10 10 9 9 9 7 6 6 6 6 6 8 9 10 10 10 10 9 8 8 7 7 6 6 5 4 4 3 2 2 1 1 0 -0 -1 -1 -1 -1 -1 -1 -2 -1 -1 -1 -2 -2
9 9 9 10 10 11 11 11 11 11 11 11 11 12 12 12 13 13 13 13 13 14 14 14 14 14 14 14 13 13 12 12 12 11 10 11 11 10 9 9 10 9 8 7 6 6 6 5 6 7 8 9 9 10 10 10 10 9 8 7 6 6 5 4 4 3 2 1 0 0 -0 -0 -0 -1 -1 -1 -1 -2 -3 -3 -3 -3 -2 -2 -3
8 8 7 8 8 8 8 8 8 9 9 9 10 11 11 12 12 12 12 12 13 13 12 13 13 13 14 13 12 12 11 11 11 11 11 11 11 9 9 10 10 9 8 6 6 5 5 5 6 7 8 8 8 9 9 9 9 9 9 8 7 6 5 4 3 3 2 1 1 0 -1 -0 -0 -1 -1 -1 -2 -2 -3 -4 -4 -4 -3 -3 -3
7 6 6 6 6 6 6 7 7 8 8 9 9 10 11 11 11 11 11 11 12 12 12 12 12 12 13 13 12 11 11 11 11 10 10 11 10 10 10 10 9 8 7 7 6 5 5 5 6 6 7 7 8 8 8 8 8 8 7 7 7 6 6 5 4 3 2 2 2 1 1 1 0 -1 -2 -2 -3 -3 -4 -4 -4 -4 -5 -5 -6
6 5 5 5 5 5 5 6 6 7 8 9 9 10 10 10 11 11 11 11 11 11 11 11 11 11 12 12 11 11 11 10 9 9 9 10 9 10 10 9 8 7 7 7 6 5 5 5 6 6 6 7 7 7 7 7 7 6 6 6 5 5 5 5 4 4 3 3 2 2 2 1 0 -1 -2 -2 -3 -4 -4 -5 -5 -5 -6 -8 -8
6 5 5 5 5 5 5 5 6 6 7 7 8 9 9 9 10 10 10 11 11 11 10 11 11 11 10 10 10 10 9 9 8 9 9 8 7 7 8 8 8 7 7 6 6 5 5 5 6 6 6 6 7 7 7 6 6 6 5 5 5 4 4 4 3 3 3 3 3 3 2 1 0 -1 -1 -2 -3 -4 -4 -5 -5 -5 -5 -7 -7
5 5 5 5 5 5 5 5 6 6 6 6 7 8 8 9 9 9 9 9 10 10 10 10 10 10 9 9 9 9 8 8 8 8 7 6 6 7 8 8 7 7 7 7 6 5 6 7 7 7 6 6 6 6 6 6 6 5 5 5 4 4 4 3 3 3 2 2 2 2 1 1 -0 -1 -2 -3 -3 -4 -4 -5 -5 -5 -5 -6 -6
5 5 5 5 5 5 5 5 6 6 7 7 7 7 8 8 9 9 9 9 9 9 9 9 9 9 9 8 8 8 8 8 7 7 7 7 7 7 7 7 7 7 6 6 6 6 7 8 8 8 7 7 7 6 7 7 6 5 5 4 4 4 3 3 3 2 2 2 1 1 0 0 -0 -1 -2 -3 -4 -4 -4 -4 -5 -5 -5 -5 -5
5 5 5 5 5 5 5 6 6 6 7 7 7 7 8 8 8 8 8 8 8 8 8 8 8 8 8 8 7 7 7 7 7 6 6 6 6 6 6 6 6 6 5 5 5 6 6 7 8 8 8 8 7 6 6 6 6 5 5 4 4 3 3 2 2 1 1 1 1 0 -0 -1 -1 -2 -3 -3 -4 -3 -3 -4 -5 -5 -6 -6 -6
4 5 5 5 5 5 5 6 6 7 7 7 7 7 8 8 8 8 8 8 8 7 7 7 7 7 7 7 7 7 7 7 6 6 6 5 5 5 5 5 5 5 4 4 5 6 6 7 8 8 8 8 7 6 6 6 5 5 4 4 3 2 2 1 1 1 0 0 0 -0 -1 -1 -1 -2 -3 -4 -4 -4 -4 -5 -5 -6 -7 -8 -8
4 4 5 5 5 5 5 6 6 6 7 7 7 7 7 7 7 7 7 7 7 7 6 6 6 6 6 6 6 6 6 6 6 6 5 5 5 5 5 5 4 4 4 4 4 5 6 7 8 8 8 8 7 6 6 5 5 5 4 3 2 2 1 1 1 0 -0 -0 -0 -0 -1 -1 -2 -3 -3 -4 -4 -4 -4 -5 -5 -6 -7 -8 -9
4 4 4 5 5 5 6 6 6 6 7 7 7 7 6 6 6 6 6 6 6 5 5 5 5 5 5 6 6 6 6 6 5 5 5 5 5 5 5 5 4 3 3 3 3 4 5 6 6 6 7 7 6 6 6 6 5 5 4 3 2 2 2 2 1 1 0 0 -0 -1 -2 -2 -2 -3 -3 -4 -4 -4 -4 -4 -5 -5 -6 -8 -9
4 4 4 5 5 5 5 6 6 6 7 6 6 6 5 5 5 5 5 5 4 4 4 4 4 4 4 4 4 4 5 5 5 5 5 5 5 5 4 4 4 4 3 3 3 3 3 3 3 4 5 6 6 6 6 5 5 4 4 3 3 4 3 2 1 1 0 -0 -1 -2 -2 -2 -2 -3 -3 -4 -4 -4 -4 -4 -5 -5 -6 -7 -9
4 4 4 5 5 5 5 6 6 6 6 6 5 5 5 5 5 4 4 4 4 3 3 3 3 3 3 3 3 3 3 3 4 4 3 3 3 3 3 4 4 4 3 2 2 2 1 2 3 4 4 5 5 5 5 5 4 4 4 4 4 3 2 1 1 -0 -1 -1 -2 -2 -2 -2 -3 -3 -3 -4 -4 -4 -4 -5 -5 -5 -6 -7 -9
4 3 4 4 5 5 6 6 6 6 5 5 5 5 5 5 4 4 4 4 3 3 3 3 3 3 3 3 3 3 3 3 3 3 2 2 2 2 3 4 4 3 3 2 2 2 3 4 4 5 5 5 4 4 4 4 4 3 3 3 3 2 1 1 0 -1 -1 -2 -2 -3 -3 -3 -3 -3 -4 -4 -4 -5 -5 -5 -5 -6 -7 -8 -9
4 3 4 4 5 5 6 6 6 5 5 5 5 5 5 4 4 4 4 3 3 3 2 2 2 2 2 2 2 2 3 3 3 3 3 2 2 2 2 3 3 3 3 3 4 4 5 5 6 6 5 5 4 3 3 3 3 3 3 2 1 1 0 -0 -1 -1 -2 -2 -2 -3 -3 -3 -3 -3 -4 -4 -5 -5 -5 -6 -6 -7 -7 -8 -9
3 4 4 4 4 5 5 5 5 5 5 5 4 4 4 3 3 2 2 2 2 2 1 1 1 1 1 1 1 1 2 2 2 2 2 1 1 1 1 1 2 2 3 4 5 5 6 6 6 5 5 4 3 2 2 2 2 2 1 1 -0 -1 -1 -1 -1 -2 -2 -2 -3 -3 -3 -3 -3 -4 -4 -5 -5 -5 -6 -6 -7 -7 -8 -9 -9
3 4 4 4 4 4 4 5 4 4 4 4 4 4 3 3 2 2 2 2 2 1 1 1 1 0 0 0 0 1 1 1 1 1 1 0 0 0 0 0 1 2 2 3 4 4 5 5 4 3 3 3 2 1 -0 -0 -1 -0 -1 -1 -1 -1 -1 -1 -2 -2 -2 -2 -3 -3 -3 -3 -4 -4 -5 -5 -6 -6 -6 -7 -7 -8 -8 -8 -8
3 3 3 3 4 4 4 3 3 3 3 3 3 4 4 3 3 2 2 2 2 1 1 0 0 -0 -0 -0 0 0 0 0 0 -0 -0 -0 -1 -1 -0 -0 0 1 1 2 2 3 3 3 2 2 1 1 0 -1 -1 -2 -3 -3 -2 -2 -2 -1 -1 -2 -2 -2 -2 -2 -2 -3 -3 -4 -5 -5 -5 -6 -6 -6 -6 -7 -8 -8 -9 -8 -8
3 3 3 3 3 3 3 3 2 2 2 2 2 3 3 3 2 2 2 1 1 1 1 0 -0 -0 -0 -0 -0 0 0 -0 -0 -0 -0 -0 -1 -1 -1 -1 -0 -0 0 0 1 1 1 1 1 1 0 -1 -2 -2 -3 -3 -4 -4 -3 -3 -2 -1 -2 -3 -2 -2 -2 -2 -3 -3 -4 -5 -5 -5 -5 -6 -6 -6 -7 -7 -7 -8 -8 -8 -8
2 2 2 2 2 2 2 2 2 1 1 1 2 2 2 2 2 2 2 2 2 1 1 0 0 1 0 -0 -1 -1 -1 -1 -1 -0 -0 -0 -1 -1 -1 -1 -1 -1 -0 -0 -0 -0 0 0 -0 -1 -2 -3 -4 -4 -4 -4 -4 -4 -4 -3 -3 -3 -4 -4 -4 -4 -4 -4 -4 -5 -5 -6 -6 -5 -6 -6 -6 -6 -7 -7 -7 -7 -8 -9 -9
2 2 2 2 2 2 2 2 1 1 0 0 1 1 1 2 2 2 2 2 2 2 1 1 1 1 1 0 -0 -1 -1 -1 0 0 -0 -0 -1 -1 -1 -1 -1 -1 -1 -1 -1 -1 -1 -1 -2 -3 -3 -4 -5 -5 -5 -5 -5 -5 -4 -4 -4 -4 -5 -5 -5 -5 -5 -5 -5 -6 -6 -7 -6 -6 -6 -7 -6 -7 -7 -8 -8 -8 -8 -9 -9
1 1 1 1 1 1 1 1 1 1 0 -0 -0 -0 0 1 1 1 1 1 1 1 1 1 1 1 1 0 0 0 0 0 0 0 -0 -0 -0 -1 -1 -1 -1 -1 -1 -1 -1 -1 -2 -2 -3 -3 -4 -5 -5 -5 -5 -5 -5 -5 -5 -6 -6 -5 -6 -6 -6 -6 -6 -6 -6 -6 -7 -7 -7 -7 -7 -7 -7 -8 -8 -8 -8 -9 -9 -10 -10
-1 -0 -0 0 -0 0 0 0 0 0 -0 -0 -1 -1 -1 -1 -1 -0 0 0 -0 -0 0 0 0 0 0 0 -0 -0 -0 -0 -0 -0 -0 -0 -1 -1 -1 -1 -2 -1 -2 -2 -2 -2 -2 -3 -4 -4 -5 -5 -6 -6 -6 -6 -6 -6 -6 -6 -6 -6 -6 -6 -6 -7 -7 -7 -7 -7 -8 -8 -8 -8 -8 -8 -8 -8 -8 -8 -9 -9 -10 -10 -10
-1 -1 -1 -1 -1 -1 -0 -0 -0 -0 -1 -1 -1 -1 -2 -2 -3 -2 -1 -1 -1 -1 -1 -1 -1 -1 -0 -0 -1 -1 -1 -1 -1 -1 -1 -1 -1 -1 -2 -2 -2 -2 -2 -2 -3 -3 -3 -4 -4 -5 -5 -6 -6 -6 -6 -6 -6 -6 -6 -6 -6 -6 -6 -6 -7 -7 -7 -7 -8 -8 -8 -9 -9 -8 -8 -8 -8 -8 -9 -9 -9 -10 -10 -10 -11
0 -1 -1 -1 -1 -1 -1 -1 -1 -1 -1 -1 -1 -1 -2 -2 -3 -3 -3 -2 -2 -1 -1 -1 -1 -1 -1 -1 -1 -1 -1 -1 -1 -1 -1 -1 -1 -2 -2 -2 -2 -2 -3 -4 -4 -4 -4 -4 -5 -5 -5 -6 -6 -6 -6 -6 -6 -6 -6 -6 -6 -6 -6 -6 -7 -7 -8 -8 -8 -9 -9 -9 -9 -9 -9 -9 -9 -9 -9 -9 -10 -10 -11 -11 -11
2 0 -1 -1 -1 -2 -1 -1 -1 -1 -1 -1 -1 -1 -1 -1 -1 -2 -3 -3 -3 -2 -2 -2 -2 -2 -2 -2 -2 -2 -2 -2 -2 -2 -2 -2 -2 -2 -2 -3 -3 -3 -4 -4 -4 -5 -5 -5 -5 -5 -5 -6 -6 -5 -6 -6 -6 -6 -6 -6 -6 -6 -7 -7 -7 -8 -8 -9 -9 -9 -9 -10 -9 -9 -9 -9 -10 -10 -10 -10 -10 -11 -11 -11 -12
2 1 0 0 -0 -1 -1 -1 -1 -1 -1 -1 -1 -1 -1 -1 -1 -1 -2 -2 -2 -2 -2 -2 -2 -2 -2 -2 -2 -2 -2 -2 -2 -2 -2 -2 -2 -2 -3 -4 -4 -4 -4 -4 -5 -5 -5 -5 -5 -5 -5 -5 -5 -5 -5 -5 -5 -5 -6 -6 -7 -7 -8 -8 -8 -8 -8 -9 -9 -10 -10 -10 -10 -10 -10 -10 -10 -10 -10 -10 -10 -10 -11 -11 -12
1 0 0 0 0 0 -0 -0 -0 -0 -1 -1 -1 -1 -1 -1 -2 -2 -2 -2 -2 -2 -2 -2 -2 -2 -3 -2 -2 -2 -2 -2 -2 -2 -2 -2 -3 -3 -4 -4 -5 -5 -5 -5 -5 -5 -5 -5 -5 -5 -5 -5 -5 -5 -5 -5 -5 -5 -6 -6 -7 -7 -8 -8 -8 -8 -8 -9 -9 -10 -10 -10 -10 -10 -10 -11 -11 -10 -10 -10 -10 -10 -11 -11 -12
1 0 -0 -0 0 0 -0 -1 -1 -0 -1 -1 -1 -2 -2 -2 -2 -2 -2 -2 -2 -2 -2 -3 -3 -3 -3 -3 -3 -3 -3 -3 -3 -3 -3 -3 -3 -3 -4 -4 -4 -4 -5 -5 -5 -5 -5 -5 -5 -5 -5 -5 -5 -5 -5 -5 -6 -6 -6 -7 -7 -7 -7 -7 -7 -8 -8 -9 -9 -9 -10 -11 -11 -10 -11 -12 -11 -11 -11 -11 -11 -11 -11 -12 -12
1 0 -0 -0 -1 -1 -1 -1 -2 -2 -2 -2 -2 -2 -3 -3 -3 -3 -3 -3 -3 -3 -3 -3 -3 -3 -3 -3 -3 -3 -4 -4 -4 -4 -4 -4 -4 -4 -4 -4 -4 -4 -4 -4 -5 -5 -5 -5 -5 -5 -5 -5 -6 -6 -6 -6 -6 -6 -6 -7 -7 -7 -7 -8 -8 -8 -9 -9 -9 -10 -10 -11 -11 -11 -12 -12 -11 -11 -11 -12 -12 -12 -12 -13 -13
-0 -0 -1 -1 -1 -1 -2 -2 -3 -3 -3 -3 -3 -3 -3 -3 -3 -3 -3 -3 -3 -3 -3 -4 -4 -3 -3 -4 -4 -4 -5 -5 -5 -5 -5 -5 -5 -5 -5 -4 -4 -5 -4 -4 -5 -5 -5 -5 -5 -5 -5 -6 -6 -6 -6 -6 -6 -6 -6 -7 -7 -7 -8 -8 -8 -8 -9 -9 -9 -10 -11 -11 -11 -12 -12 -12 -12 -11 -12 -12 -12 -12 -12 -13 -13
-2 -2 -2 -2 -2 -2 -3 -3 -3 -3 -3 -4 -4 -4 -4 -4 -4 -4 -4 -4 -4 -4 -4 -4 -4 -4 -4 -4 -4 -4 -5 -5 -5 -5 -5 -5 -5 -5 -5 -5 -5 -5 -5 -5 -5 -5 -5 -5 -5 -5 -5 -6 -6 -6 -6 -6 -6 -6 -7 -7 -7 -8 -8 -8 -8 -8 -9 -9 -10 -11 -11 -12 -12 -12 -13 -12 -12 -12 -12 -12 -12 -12 -12 -12 -12
-3 -3 -4 -3 -3 -3 -4 -4 -4 -4 -4 -4 -4 -4 -4 -4 -4 -4 -4 -4 -4 -4 -4 -5 -5 -5 -5 -5 -5 -5 -5 -5 -5 -5 -5 -5 -5 -5 -5 -5 -5 -5 -5 -5 -5 -5 -5 -5 -5 -6 -6 -6 -6 -6 -6 -6 -6 -7 -7 -7 -8 -8 -8 -8 -8 -9 -9 -10 -10 -11 -11 -12 -12 -13 -13 -13 -13 -13 -13 -13 -12 -12 -13 -13 -13
-4 -4 -4 -4 -4 -4 -4 -5 -5 -4 -5 -5 -5 -5 -5 -5 -5 -5 -5 -5 -5 -5 -5 -5 -5 -5 -5 -5 -5 -5 -5 -5 -5 -5 -5 -5 -5 -5 -5 -5 -5 -5 -5 -5 -5 -6 -6 -6 -6 -6 -6 -6 -6 -6 -6 -6 -7 -7 -7 -7 -8 -8 -8 -9 -9 -9 -9 -10 -11 -11 -11 -12 -12 -13 -13 -13 -13 -13 -14 -13 -13 -13 -13 -14 -14
-4 -4 -5 -5 -5 -5 -5 -5 -5 -5 -6 -6 -6 -6 -6 -6 -6 -6 -6 -6 -6 -6 -6 -6 -6 -6 -6 -6 -6 -6 -6 -6 -6 -6 -6 -6 -6 -6 -6 -6 -6 -6 -6 -6 -6 -6 -6 -6 -6 -6 -6 -7 -7 -7 -7 -7 -7 -7 -7 -8 -8 -8 -8 -9 -9 -9 -10 -10 -11 -11 -12 -12 -13 -13 -13 -14 -14 -14 -14 -14 -14 -14 -14 -14 -14
-4 -5 -5 -6 -6 -6 -6 -6 -6 -6 -6 -6 -6 -6 -6 -6 -7 -7 -7 -7 -7 -7 -7 -7 -7 -7 -7 -7 -7 -7 -7 -7 -7 -7 -7 -7 -7 -7 -7 -7 -7 -7 -7 -7 -7 -7 -7 -7 -8 -8 -8 -8 -8 -8 -8 -8 -8 -8 -8 -8 -8 -9 -9 -9 -9 -9 -10 -10 -10 -11 -12 -13 -13 -14 -14 -14 -14 -15 -14 -14 -14 -14 -14 -15 -15
-5 -6 -6 -6 -7 -7 -7 -7 -7 -7 -7 -7 -7 -7 -7 -7 -7 -8 -8 -8 -8 -8 -8 -8 -8 -8 -8 -8 -8 -8 -8 -8 -8 -8 -8 -8 -8 -8 -8 -8 -8 -8 -9 -8 -9 -9 -9 -9 -9 -9 -9 -9 -9 -9 -9 -9 -9 -9 -9 -9 -9 -9 -9 -9 -9 -10 -10 -10 -11 -11 -12 -13 -13 -14 -14 -15 -15 -15 -14 -14 -14 -15 -15 -15 -15
-6 -6 -6 -7 -7 -7 -7 -7 -7 -7 -7 -7 -8 -8 -8 -8 -8 -9 -9 -9 -9 -9 -9 -10 -10 -10 -10 -10 -9 -9 -9 -9 -9 -10 -10 -10 -10 -10 -10 -10 -10 -10 -10 -10 -10 -10 -10 -10 -10 -10 -10 -10 -10 -10 -10 -10 -10 -10 -10 -10 -10 -10 -10 -10 -10 -10 -11 -11 -11 -12 -12 -13 -13 -14 -14 -15 -15 -15 -14 -15 -15 -15 -15 -15 -15
-6 -6 -6 -7 -7 -8 -8 -8 -8 -8 -8 -8 -9 -9 -9 -9 -9 -10 -10 -10 -10 -10 -10 -10 -10 -10 -10 -10 -10 -10 -10 -10 -10 -10 -11 -11 -11 -11 -11 -11 -11 -11 -11 -11 -11 -11 -11 -11 -12 -12 -12 -12 -12 -12 -12 -12 -12 -12 -12 -11 -11 -11 -11 -11 -11 -11 -12 -12 -12 -12 -13 -13 -14 -14 -15 -15 -15 -15 -15 -15 -15 -15 -15 -15 -15
-6 -7 -7 -7 -7 -8 -8 -9 -9 -9 -9 -9 -9 -10 -10 -10 -10 -10 -10 -10 -10 -10 -10 -10 -10 -10 -10 -10 -11 -11 -11 -11 -11 -11 -11 -11 -11 -12 -12 -12 -12 -12 -13 -12 -13 -13 -13 -13 -13 -13 -13 -13 -13 -13 -13 -13 -13 -13 -13 -13 -13 -13 -12 -12 -12 -12 -12 -13 -13 -13 -13 -14 -14 -15 -15 -15 -15 -15 -15 -16 -16 -16 -16 -16 -16
-7 -7 -7 -7 -8 -8 -8 -8 -8 -9 -9 -9 -10 -10 -10 -10 -10 -10 -10 -10 -11 -11 -11 -11 -11 -11 -11 -12 -12 -12 -12 -12 -12 -12 -12 -13 -13 -13 -13 -14 -14 -14 -14 -14 -14 -14 -14 -15 -15 -15 -15 -15 -15 -15 -15 -15 -15 -15 -14 -14 -14 -14 -14 -14 -14 -13 -13 -14 -14 -14 -14 -14 -15 -15 -15 -15 -15 -16 -16 -16 -16 -16 -16 -17 -17
-7 -7 -7 -8 -8 -8 -8 -9 -9 -9 -9 -9 -10 -10 -10 -11 -11 -11 -11 -11 -12 -12 -12 -12 -13 -13 -13 -13 -13 -13 -13 -14 -14 -14 -14 -14 -14 -14 -15 -15 -15 -15 -15 -16 -16 -16 -16 -16 -16 -16 -16 -16 -16 -16 -16 -16 -16 -15 -15 -15 -15 -15 -15 -15 -15 -14 -14 -15 -15 -15 -15 -15 -15 -16 -16 -16 -16 -16 -16 -16 -16 -16 -17 -17 -17
-8 -8 -8 -8 -8 -9 -9 -9 -9 -10 -10 -10 -10 -11 -11 -12 -12 -12 -12 -13 -13 -13 -14 -14 -14 -14 -14 -14 -14 -15 -15 -15 -15 -15 -15 -16 -16 -16 -16 -16 -16 -16 -16 -16 -16 -16 -16 -16 -17 -17 -17 -17 -17 -17 -16 -16 -16 -16 -16 -16 -16 -16 -16 -16 -16 -16 -16 -16 -16 -16 -16 -16 -16 -16 -16 -16 -16 -16 -16 -16 -16 -17 -17 -17 -18
Height
756 757 757 759 760 761 762 763 765 767 769 771 772 772 774 775 776 778 780 781 782 783 784 785 787 789 791 793 794 796 797 798 799 801 802 805 807 809 812 814 816 817 819 820 821 822 823 824 826 827 828 830 831 833 834 836 837 839 841 843 845 846 848 849 850 852 855 856 856 856 857 857 858 857 857 857 856 856 856 855 854 852 850 849 848
753 755 756 757 758 759 760 761 763 765 766 768 769 770 771 772 774 776 777 777 779 779 780 782 783 785 787 789 791 792 794 795 796 797 798 800 802 805 807 809 811 813 815 817 818 819 820 822 823 825 826 828 830 831 832 834 835 837 839 841 843 845 846 848 849 851 853 854 855 855 856 856 856 856 855 855 855 854 854 854 852 851 849 848 847
753 754 756 757 757 759 760 761 762 763 764 765 766 767 768 770 772 772 773 774 775 776 777 778 780 782 784 785 787 789 790 791 792 793 794 796 798 800 803 805 807 808 810 812 815 816 818 819 821 822 824 826 828 830 831 832 834 836 838 840 842 844 845 847 848 849 851 852 853 854 854 855 855 854 854 854 853 853 852 852 851 849 848 847 845
751 752 754 755 756 757 758 759 760 761 762 762 763 764 765 766 768 768 769 770 771 772 774 775 777 779 780 782 784 786 787 788 788 789 790 792 794 796 798 800 802 804 806 808 810 812 814 815 818 819 822 824 826 828 829 831 832 834 836 838 840 842 844 845 847 848 849 850 852 853 853 853 853 853 852 852 852 851 851 850 849 848 847 846 844
749 750 751 752 753 754 754 755 756 757 758 759 760 761 762 763 764 765 765 766 768 769 771 772 774 775 776 778 781 782 784 785 785 786 787 789 791 793 795 797 799 801 803 805 807 808 810 812 815 817 819 822 824 826 827 829 831 833 834 836 839 841 843 844 845 846 848 849 850 851 851 851 851 851 851 851 850 849 849 848 848 847 846 844 842
746 747 748 749 750 751 752 752 753 754 755 756 757 758 760 760 761 762 763 764 765 767 768 769 771 772 774 776 778 780 782 783 784 785 786 787 788 790 792 794 796 798 800 802 805 806 808 810 812 815 817 820 822 823 825 827 829 831 833 835 837 839 841 842 844 845 847 848 848 849 849 849 849 849 849 849 848 847 847 846 846 845 844 843 841
743 744 745 746 747 748 749 750 751 752 753 754 756 757 758 759 759 760 761 762 764 765 766 768 769 770 772 773 776 778 780 781 782 783 784 784 785 787 789 791 794 796 798 800 802 804 806 808 810 813 816 818 820 821 823 825 827 829 831 833 835 837 839 840 842 844 845 846 847 847 847 847 847 848 847 846 846 845 845 844 844 843 842 841 840
741 743 743 744 745 746 747 748 749 750 751 752 753 754 756 757 758 760 761 761 762 764 765 766 767 769 770 772 774 775 776 778 779 781 781 781 783 785 786 788 791 794 796 798 800 801 804 806 809 812 815 817 819 820 821 822 824 827 829 831 833 835 837 838 840 842 843 844 844 845 845 845 845 846 845 844 844 844 843 843 842 842 841 839 838
740 742 742 742 743 744 745 746 747 748 749 750 752 753 754 756 757 758 759 760 761 762 763 764 765 766 768 770 772 772 773 774 776 777 777 779 781 783 784 786 789 792 794 796 798 800 802 805 808 811 814 816 818 819 820 821 823 824 826 829 831 833 835 836 838 839 840 841 842 843 843 843 843 843 843 842 842 842 842 842 841 840 839 837 836
739 740 741 741 742 743 744 745 746 747 748 749 751 752 753 754 755 756 757 758 759 760 761 762 763 764 765 767 769 769 770 771 772 773 775 777 779 781 783 786 787 789 791 793 795 797 800 803 806 810 813 815 817 819 820 821 822 823 825 826 828 830 832 834 835 837 838 838 839 840 840 840 840 840 840 840 840 841 841 841 839 838 836 835 834
737 738 739 740 741 742 743 744 745 746 747 748 749 751 752 753 753 754 755 757 758 758 760 761 761 762 763 764 766 766 768 769 770 771 773 775 777 778 781 783 785 787 789 790 792 794 797 800 804 808 811 813 815 817 818 819 820 822 824 825 827 828 830 831 833 834 835 835 836 837 837 837 837 837 837 838 839 839 839 839 838 836 834 833 833
736 737 738 739 740 741 742 743 744 745 746 747 748 749 750 751 752 753 754 755 757 757 759 760 761 762 763 763 764 765 766 767 768 770 773 775 776 776 777 779 782 785 787 789 791 793 794 797 802 806 808 811 813 814 816 818 819 821 823 824 825 827 828 829 830 831 832 833 833 834 834 834 835 835 835 836 837 838 838 837 836 834 832 832 833
734 735 737 738 739 740 741 742 743 744 745 746 747 747 749 749 750 751 752 754 755 755 757 758 759 761 762 763 764 764 766 767 768 770 772 773 775 776 777 778 780 782 785 787 789 791 793 795 799 803 806 809 811 812 814 815 817 819 821 822 823 825 826 827 829 830 830 831 831 832 832 832 833 833 834 835 835 836 836 835 833 832 831 831 832
732 733 735 737 737 739 740 740 741 742 743 744 745 746 747 748 749 750 750 751 752 753 755 756 757 759 760 761 763 764 765 767 768 770 771 772 775 776 778 779 780 781 783 785 787 790 792 793 796 800 803 806 808 810 812 813 815 817 818 820 821 823 824 825 827 828 829 830 830 831 831 831 831 831 832 833 833 834 833 832 831 830 830 830 830
729 731 733 734 735 736 737 738 739 740 740 742 743 744 745 746 747 748 749 750 751 752 753 754 755 756 758 759 761 762 764 766 768 770 771 773 775 776 777 779 780 781 782 784 786 788 790 792 794 797 800 803 805 807 809 811 813 815 816 818 819 821 823 824 825 827 828 828 829 829 829 830 830 830 831 831 831 831 831 830 830 829 829 829 829
726 728 729 731 732 733 734 735 736 737 738 739 740 741 743 744 745 746 747 749 750 751 752 753 754 755 756 757 759 760 762 764 766 769 771 773 775 776 777 778 780 780 781 783 785 788 790 791 793 796 798 801 803 805 808 809 811 813 814 816 818 819 821 822 824 825 826 827 828 828 828 828 828 829 829 830 829 829 829 829 828 828 828 827 827
722 724 726 727 729 731 732 733 733 734 735 736 737 739 740 742 743 745 746 747 748 750 751 752 753 754 755 756 757 759 760 762 764 766 769 771 773 774 776 777 779 779 781 783 784 787 790 791 792 795 797 799 801 803 805 807 809 811 812 814 815 817 819 821 822 823 824 825 826 826 826 827 827 827 828 828 828 827 827 827 827 827 827 826 826
718 720 722 725 727 729 730 731 732 733 734 735 736 737 738 740 741 743 745 746 748 749 750 752 753 754 755 756 757 758 759 761 763 764 766 769 771 773 774 775 777 778 780 783 784 786 788 790 792 793 795 796 799 801 803 805 807 808 809 811 813 815 816 818 820 821 822 823 824 825 825 825 826 826 827 826 826 826 826 826 825 826 826 826 825
715 718 720 723 726 728 729 731 731 733 734 735 736 737 738 740 741 743 744 746 747 749 750 751 752 753 754 755 756 757 758 759 761 763 765 767 769 771 772 773 775 776 778 781 783 785 787 788 789 791 792 794 797 799 801 803 804 806 807 809 810 812 814 816 818 819 820 821 822 823 823 824 824 825 825 825 825 824 824 824 824 824 824 824 825
714 717 719 722 725 726 728 729 730 732 733 734 736 737 738 740 741 743 744 745 747 749 750 751 752 752 754 754 755 756 757 758 759 760 762 764 766 768 769 770 771 773 775 777 779 781 783 785 786 788 791 794 796 798 799 801 803 804 805 807 808 810 813 815 816 818 819 820 821 821 822 822 822 823 823 823 823 823 823 822 822 822 822 822 823
712 715 717 720 723 724 726 728 729 731 732 733 735 737 738 739 741 742 744 745 746 748 749 751 752 752 754 755 755 756 757 759 760 760 762 763 765 767 768 769 770 772 774 776 778 779 781 783 785 788 791 793 795 797 798 800 801 803 804 806 808 809 812 813 815 816 817 818 819 819 820 820 820 821 822 822 822 822 821 821 821 821 821 820 820
710 713 715 717 720 722 724 726 727 729 731 732 734 735 737 738 740 741 743 744 745 747 748 750 751 752 753 754 756 757 758 760 761 763 764 765 767 768 770 771 772 773 774 776 777 779 780 783 785 787 790 792 794 795 796 798 799 801 803 805 806 808 810 811 813 814 815 815 816 817 817 818 818 819 819 820 820 820 820 820 820 820 819 819 818
708 711 713 715 717 719 722 724 726 727 729 730 732 733 735 737 738 740 741 743 744 746 747 749 750 751 752 754 755 756 758 760 761 763 764 766 767 769 770 772 773 774 775 775 776 778 780 782 784 786 788 790 791 793 794 795 796 798 800 802 804 805 807 809 811 812 812 813 814 814 815 815 815 816 817 818 818 818 818 818 819 819 819 818 816
707 709 711 713 715 717 720 722 724 726 727 729 730 732 734 736 737 739 741 742 744 746 747 749 750 751 753 754 755 756 758 759 761 763 765 767 768 769 771 772 774 775 776 777 777 779 780 782 783 785 786 788 789 791 792 793 794 796 798 800 801 802 804 806 808 809 810 810 811 812 812 813 813 814 815 816 816 816 816 817 817 818 818 817 816
704 707 710 712 713 716 718 720 722 724 726 727 728 730 732 734 735 737 739 741 743 744 746 748 749 751 753 754 755 756 758 759 761 763 765 767 769 770 772 773 775 776 778 778 779 780 781 782 783 784 785 787 788 790 791 792 793 794 796 798 799 800 802 804 805 806 806 807 807 809 810 811 811 812 813 814 814 814 814 815 816 816 816 816 816
703 706 708 710 712 714 716 718 721 723 724 726 726 728 729 731 732 734 736 738 740 741 743 745 747 748 750 751 753 754 756 757 759 762 764 766 768 770 772 773 775 777 778 779 780 781 782 783 784 785 786 787 788 789 790 791 792 793 795 796 797 798 799 801 802 803 803 804 805 807 808 809 809 810 810 811 812 812 812 813 814 814 815 815 814
702 705 707 709 712 714 715 717 720 722 723 724 725 727 728 729 730 731 733 735 736 738 740 741 743 745 746 748 749 751 753 754 756 758 760 762 764 767 769 771 773 775 776 778 779 780 782 783 784 786 787 787 788 789 790 791 792 793 794 795 795 796 797 799 800 801 801 802 803 805 806 807 807 807 807 809 809 810 810 811 812 812 812 812 812
700 703 705 708 710 712 715 717 719 721 723 724 725 727 728 729 731 732 733 735 736 738 739 741 742 744 745 747 749 750 752 753 754 756 757 759 761 763 765 767 769 771 773 775 777 778 780 782 783 784 785 786 787 788 789 790 791 792 792 793 793 794 795 797 798 799 799 800 801 803 804 804 804 804 805 805 806 807 807 808 809 809 809 809 809
698 701 703 705 708 710 713 716 718 720 723 724 726 727 728 729 731 732 733 735 736 737 738 740 741 743 745 747 749 750 751 752 753 755 756 758 759 760 762 764 765 767 769 771 773 775 777 778 779 781 782 783 784 785 786 788 789 790 791 791 791 792 793 794 795 796 797 798 799 800 801 802 802 802 803 803 803 804 804 805 805 806 806 806 806
696 698 700 702 705 707 710 714 716 719 721 723 725 726 727 729 730 731 732 733 734 735 736 737 739 740 742 744 745 746 747 748 749 751 753 754 756 757 759 760 762 764 766 768 770 772 773 774 775 776 777 779 780 781 782 784 785 787 787 788 789 790 790 791 792 793 794 795 796 797 799 800 800 800 800 800 801 802 802 802 802 802 802 802 802
693 695 697 699 700 703 707 711 714 717 719 721 723 724 726 728 729 730 731 732 733 734 735 736 737 738 739 740 741 742 743 744 746 747 749 750 752 754 756 757 759 760 762 764 766 767 768 768 770 771 773 774 776 777 779 780 782 783 784 785 785 786 786 787 788 789 791 792 793 793 795 796 796 797 797 798 798 799 799 799 799 799 799 799 799
689 691 694 696 697 699 703 707 710 714 717 719 721 723 724 726 728 730 731 732 732 733 734 735 736 737 739 740 741 742 743 744 745 747 748 749 751 752 754 755 756 758 759 761 762 762 763 764 766 768 769 771 773 775 776 777 778 779 780 780 781 781 781 782 784 786 787 787 788 789 789 791 792 792 793 794 795 795 795 795 796 796 796 796 796
686 688 692 694 695 697 700 703 707 711 713 716 718 720 722 724 725 727 729 730 731 732 733 734 735 736 737 739 740 741 742 743 744 745 747 748 750 751 753 754 755 757 758 759 759 760 761 762 764 765 767 768 770 772 773 774 775 775 776 776 775 776 777 778 780 782 783 783 783 784 784 786 787 788 789 790 790 791 791 791 792 792 792 793 793
685 687 689 692 694 696 698 701 704 708 710 713 715 716 718 720 721 723 725 727 729 730 731 732 733 734 735 735 736 737 738 740 741 743 745 746 748 750 752 753 755 756 757 757 758 759 760 762 763 764 765 766 767 768 769 770 770 771 771 771 771 772 774 775 776 777 778 779 779 779 780 781 782 783 784 785 786 787 787 787 788 788 788 789 790
684 686 688 690 692 694 696 698 701 704 707 709 711 713 715 717 719 720 722 723 725 726 728 729 730 731 733 734 734 736 737 738 739 741 743 744 746 748 749 751 752 754 755 755 756 757 758 760 760 761 762 762 763 764 764 764 765 766 766 767 768 769 770 771 772 773 774 774 775 775 776 777 778 779 780 781 781 782 782 782 783 784 785 786 787
682 684 686 688 690 692 694 696 698 700 703 705 708 710 712 713 715 717 718 720 722 723 725 727 728 730 731 732 733 735 736 737 738 739 740 742 743 744 746 747 748 749 750 751 752 753 754 755 756 757 758 758 759 759 760 760 761 762 762 763 764 765 766 767 768 769 769 770 770 771 772 772 773 775 776 776 776 777 778 778 780 780 781 783 784
680 682 683 686 688 690 693 695 697 699 701 703 705 707 709 711 713 714 716 718 720 721 723 725 726 727 729 730 731 732 734 735 736 738 739 740 741 742 742 742 744 745 745 746 748 749 750 751 752 753 754 755 755 756 757 758 758 759 760 761 761 762 762 763 764 765 765 766 766 766 767 767 768 769 770 771 772 773 774 775 776 777 778 779 781
680 681 682 684 686 689 692 695 697 700 702 703 705 707 708 710 711 713 715 716 718 719 721 722 723 725 726 728 730 731 732 734 735 736 738 739 740 740 740 740 741 742 743 744 745 746 747 748 749 750 752 753 753 755 755 756 757 757 758 758 759 759 760 760 761 761 761 761 761 762 762 763 764 765 766 767 768 769 770 771 772 773 775 776 777
680 682 683 685 686 689 691 694 697 699 701 703 705 706 708 709 710 712 714 715 717 718 719 721 722 724 725 727 729 730 731 733 734 735 736 737 738 739 740 740 741 742 742 744 745 745 746 747 748 749 750 750 751 752 753 753 754 755 755 756 756 756 756 757 757 757 757 757 757 758 758 759 760 761 762 763 764 765 766 767 768 769 770 772 773
680 683 685 686 687 690 692 694 697 699 701 704 706 707 708 710 711 712 714 716 717 718 720 721 722 724 725 726 727 729 730 731 732 733 735 736 737 738 739 740 740 741 742 743 744 744 745 746 747 747 747 748 748 749 749 750 751 751 752 752 752 752 752 753 753 753 753 753 753 754 755 756 757 758 759 759 760 761 762 763 764 766 767 768 769
681 683 685 687 689 691 693 695 698 700 703 705 707 708 710 711 713 714 716 717 719 720 721 722 723 724 726 726 727 728 730 731 732 733 734 735 736 737 738 738 739 740 740 741 742 742 743 744 744 744 744 744 745 745 746 746 747 747 748 748 748 748 748 749 749 749 749 749 750 751 752 752 753 754 754 755 757 758 759 760 761 763 764 765 766
682 684 686 688 690 691 693 696 698 700 703 706 707 709 711 712 714 716 717 719 720 721 722 723 724 725 726 727 727 728 729 730 732 733 733 734 735 736 737 737 738 738 739 739 740 740 741 741 741 742 742 742 742 742 743 743 743 743 744 744 744 744 744 744 745 745 746 746 747 747 748 748 749 749 750 752 753 754 755 757 758 760 761 762 763
682 684 686 688 690 691 693 696 698 700 703 706 708 710 711 713 715 717 718 720 721 722 722 724 724 725 726 726 727 728 729 730 731 732 733 734 734 735 736 736 737 737 737 738 738 739 739 739 739 739 739 739 739 739 739 739 739 740 740 740 740 740 740 740 741 741 742 742 743 743 743 744 745 746 747 748 749 751 752 754 755 756 757 759 760
681 684 686 688 690 692 694 696 698 700 703 705 707 709 711 713 715 717 718 720 721 721 722 723 723 724 725 725 726 727 728 728 730 731 732 733 733 734 734 734 735 735 735 735 735 736 736 736 736 736 736 736 736 736 736 736 736 736 736 736 736 735 735 736 737 738 738 739 739 739 739 740 741 742 743 744 746 747 748 750 751 752 754 755 756
681 683 686 688 690 692 694 696 698 701 703 705 707 709 711 714 715 717 718 719 720 720 721 722 722 723 724 724 724 725 726 726 728 729 730 731 732 732 732 732 732 732 732 732 732 733 732 732 732 732 732 732 733 733 733 733 732 732 732 732 732 731 731 732 733 734 735 735 735 735 736 736 737 738 738 740 741 743 744 745 747 748 750 751 752
681 683 685 687 689 691 694 696 698 700 702 704 706 709 711 713 715 716 717 718 718 719 720 720 721 722 722 722 723 723 724 725 726 727 728 729 729 730 730 730 730 729 729 729 729 729 729 729 729 728 728 728 729 729 729 729 729 729 729 728 728 728 728 729 730 730 731 731 731 732 732 732 732 733 734 736 737 739 740 742 743 745 746 747 749
681 682 684 686 688 691 693 696 698 700 702 704 706 708 710 712 713 715 716 716 717 718 718 719 720 720 720 721 721 721 722 723 724 724 725 726 727 728 728 728 728 727 727 726 726 726 725 725 725 725 725 724 724 725 725 725 725 725 724 724 724 725 725 726 726 726 727 727 727 728 728 728 729 730 731 732 734 735 737 739 740 742 743 745 746
681 683 684 686 688 690 693 695 697 699 701 703 706 708 709 711 712 713 714 714 715 716 716 717 718 719 719 719 720 720 721 721 722 723 723 724 724 725 726 726 725 725 724 724 723 723 722 722 722 721 721 721 721 721 721 720 720 720 720 720 721 721 721 722 722 722 723 723 723 724 724 724 725 726 727 729 731 732 734 736 737 739 741 743 745
681 683 685 687 688 691 693 695 697 699 701 703 705 707 708 710 711 712 712 713 713 714 715 716 717 718 718 719 719 719 720 720 720 721 722 722 722 723 723 723 723 723 722 721 721 720 720 719 719 718 718 718 717 717 717 716 716 716 716 716 716 717 717 718 718 718 719 719 719 720 721 721 722 723 724 726 728 729 731 733 735 737 739 741 742
682 684 685 687 689 691 693 695 697 699 701 703 704 706 708 709 710 711 711 712 712 713 714 715 716 716 717 717 718 718 718 718 719 719 720 720 720 721 721 721 721 720 720 719 718 718 717 716 716 715 715 714 714 713 713 712 712 712 711 711 712 712 713 713 714 714 715 715 715 716 717 718 718 720 721 723 725 727 729 731 733 734 736 738 740
684 685 687 689 690 692 694 696 697 699 701 703 704 706 707 708 709 710 710 711 712 713 713 714 715 715 715 716 716 716 716 716 717 717 717 718 718 718 718 718 718 718 717 717 716 715 714 713 713 712 712 711 710 710 709 709 708 708 708 708 708 708 708 709 709 710 711 711 712 713 714 714 716 717 718 720 722 724 726 728 730 732 734 735 737
Wind_Speed
36 37 38 39 39 39 39 40 40 39 38 38 38 39 39 39 38 38 38 38 38 38 39 39 39 38 38 39 39 39 39 40 41 41 40 38 38 37 35 34 33 33 33 33 33 32 31 29 28 28 29 30 30 29 27 25 22 21 20 20 20 18 15 14 11 10 10 12 13 13 12 11 10 9 7 4 3 4 6 7 8 7 9 11 12
32 32 33 34 35 36 37 36 36 36 37 37 38 38 38 38 37 36 36 37 37 38 39 39 39 38 38 39 39 39 40 40 41 41 41 40 39 37 36 35 36 36 36 35 33 31 29 29 28 28 29 30 30 28 27 25 23 22 21 20 19 19 17 15 14 13 12 12 13 12 12 11 9 7 6 5 4 4 6 7 7 7 8 11 12
25 24 25 27 28 30 31 32 32 33 34 35 37 37 37 37 36 36 37 37 37 38 38 38 37 37 38 38 38 39 40 41 43 43 43 42 41 38 37 38 39 40 38 36 33 30 29 29 30 30 31 30 29 28 26 25 23 22 21 21 20 19 18 17 15 14 15 14 13 12 11 10 8 7 6 6 5 6 7 7 7 7 8 11 11
22 21 21 22 23 24 25 26 28 29 31 32 34 35 35 35 35 36 36 37 37 38 38 38 37 37 37 37 37 39 40 42 44 45 45 44 42 40 39 40 41 41 40 38 35 33 32 32 33 33 33 31 30 28 26 25 23 23 22 21 20 19 19 18 16 14 15 15 13 12 11 9 7 6 7 7 7 7 8 7 8 7 8 11 10
21 21 22 22 22 22 23 23 24 26 28 29 30 31 32 32 33 33 34 35 36 36 37 37 37 37 38 37 37 39 41 42 43 44 44 43 42 41 40 41 41 42 40 38 35 33 33 34 35 35 34 33 31 29 28 26 24 23 22 21 20 19 18 18 16 14 14 14 13 12 10 8 7 6 8 9 8 8 8 7 7 8 9 10 8
20 21 23 23 23 23 23 23 23 24 25 26 26 27 28 29 30 31 31 32 33 34 35 37 37 37 38 37 36 38 39 41 43 43 43 43 42 41 40 41 42 41 38 34 31 31 33 35 36 36 36 35 33 31 29 27 25 24 23 21 21 20 19 18 17 15 14 13 13 11 10 8 7 7 9 10 9 8 7 7 7 9 12 10 6
19 20 22 22 23 23 23 23 23 23 24 24 23 24 24 25 25 26 28 30 31 31 33 34 35 36 36 36 36 36 38 40 42 43 43 44 43 40 40 41 39 36 33 30 29 31 33 35 36 36 36 36 34 32 30 28 26 25 23 22 21 20 19 18 17 16 15 14 13 11 10 9 9 9 10 10 8 7 7 9 10 11 13 10 6
17 18 20 21 23 23 23 23 24 24 25 24 24 24 23 23 22 22 23 26 29 30 32 33 34 33 32 32 33 35 38 40 42 43 43 42 40 40 40 40 36 32 30 28 29 30 32 34 35 35 36 35 33 31 29 28 27 26 23 22 21 21 20 19 18 17 16 14 13 12 11 11 11 11 11 9 7 6 6 10 12 12 13 10 6
17 17 18 20 22 22 22 22 23 23 23 22 22 23 23 23 23 23 23 24 26 28 30 32 33 33 30 30 33 36 39 41 43 45 44 40 39 39 38 36 34 31 29 28 29 30 31 33 34 34 34 33 30 28 27 26 25 25 24 24 23 22 21 19 19 18 16 15 14 13 13 13 13 12 11 8 6 5 6 10 11 12 13 10 6
18 18 18 19 19 18 17 18 18 19 19 19 19 20 20 20 21 23 24 26 27 28 28 29 31 32 32 32 35 38 39 40 43 45 44 41 41 38 35 34 33 31 30 30 30 31 32 33 34 34 33 31 28 26 25 24 22 21 22 22 23 23 22 21 20 19 18 17 17 15 15 15 14 12 10 8 7 6 7 10 11 11 12 11 7
19 19 19 18 17 16 16 16 16 16 16 17 18 19 20 20 20 21 22 23 24 25 27 28 31 32 33 34 36 37 38 40 42 42 41 40 40 39 37 36 34 32 31 31 31 33 34 34 34 34 32 30 28 26 24 23 22 20 19 19 20 20 20 20 21 20 19 18 17 17 17 15 13 11 9 8 7 8 8 9 10 10 11 10 6
19 18 17 16 14 14 14 15 15 16 15 15 16 17 18 19 20 22 23 23 24 24 25 27 28 29 30 32 34 36 37 38 39 39 39 39 39 39 39 37 34 32 32 31 32 35 37 36 34 34 32 30 29 27 25 24 22 21 20 19 19 18 18 18 18 18 18 18 18 18 17 14 12 11 10 8 8 8 8 9 9 8 9 8 7
20 19 17 14 13 12 12 12 13 14 14 14 14 14 14 16 16 18 20 22 23 24 25 26 27 28 29 30 32 33 34 35 36 36 37 37 37 36 36 35 34 33 32 31 34 37 37 37 35 34 32 31 29 28 27 25 23 22 22 21 20 20 19 18 17 17 16 17 17 16 15 13 11 10 9 8 7 8 9 9 8 8 9 10 12
20 19 17 15 13 13 13 12 12 12 12 13 13 13 13 14 15 15 16 18 19 21 23 24 25 26 27 28 30 30 31 32 33 34 35 34 32 31 31 32 32 31 30 32 36 38 39 38 38 36 34 32 30 29 28 26 26 24 23 22 21 21 20 19 18 17 16 16 15 14 13 12 10 9 8 8 8 8 9 9 8 9 11 12 14
20 20 19 17 16 15 14 14 13 13 12 12 12 13 14 14 15 15 15 17 18 19 20 22 23 25 25 26 27 28 29 29 30 31 31 32 32 32 32 31 30 29 30 33 36 39 40 39 38 37 35 33 31 30 28 28 27 26 25 24 22 21 20 19 18 17 16 15 14 13 13 12 9 8 8 8 9 9 8 7 8 10 11 13 14
21 21 21 20 19 17 16 15 15 14 14 13 13 13 13 13 13 13 14 15 16 17 18 20 21 23 24 25 25 26 27 28 27 27 28 30 32 31 30 29 29 29 31 34 37 38 39 38 37 36 34 33 32 30 29 28 27 26 25 24 22 22 20 19 17 17 16 14 14 13 13 11 9 9 9 9 9 9 7 6 8 9 11 14 13
23 23 23 22 20 19 17 17 16 15 15 15 15 15 14 14 14 14 14 15 15 16 17 18 19 20 21 22 23 25 26 26 26 27 28 31 32 31 30 29 29 30 32 35 37 38 38 37 36 34 33 33 32 31 30 29 27 26 25 24 23 22 21 19 18 17 16 15 15 14 12 10 9 9 9 8 8 8 7 7 8 8 9 10 9
24 24 24 23 21 19 18 17 16 16 15 15 14 15 15 15 15 15 15 15 15 16 16 17 17 18 19 20 21 23 24 25 25 27 29 31 32 31 30 29 29 30 32 34 35 37 36 35 33 33 33 34 33 32 31 29 28 27 26 25 24 23 22 21 19 18 17 17 16 13 11 10 10 9 9 9 9 8 7 7 8 8 9 7 7
23 23 23 22 20 18 17 16 15 15 14 13 13 13 13 13 13 13 13 13 14 14 15 16 16 16 18 19 20 22 24 24 24 26 28 30 31 31 31 30 31 32 33 34 34 34 35 34 34 34 34 33 32 31 30 29 28 27 26 25 25 24 23 22 20 19 18 17 15 13 11 11 11 10 10 10 9 9 8 8 9 8 8 8 8
21 21 20 19 18 17 16 15 15 14 13 13 13 12 12 11 11 11 12 12 12 12 13 13 14 15 16 17 19 20 22 22 24 26 28 31 32 32 32 32 33 34 35 36 35 34 34 34 34 33 31 30 30 29 29 29 28 27 26 24 24 23 21 20 20 19 18 16 14 13 13 12 12 11 11 10 9 9 9 9 9 8 8 8 8
19 19 19 19 19 17 15 14 14 13 13 12 12 11 10 10 11 11 11 11 11 11 11 12 12 12 13 15 16 17 18 19 22 25 27 29 30 31 31 31 33 34 34 33 33 33 32 32 31 30 29 28 28 28 28 28 27 25 24 22 22 20 18 18 19 19 17 16 14 14 15 14 13 12 12 11 10 10 10 10 10 9 9 9 9
18 19 20 20 19 18 16 15 14 14 13 12 11 11 11 11 11 11 11 11 11 11 12 12 12 12 13 14 15 17 17 17 18 21 24 25 27 29 30 30 30 31 32 32 32 32 32 31 30 30 29 29 28 28 28 27 26 25 22 20 20 19 17 17 18 18 18 16 16 17 16 15 14 14 12 12 11 11 10 9 9 10 11 11 11
19 20 20 20 20 19 17 16 15 14 14 13 13 12 12 12 12 12 12 12 12 12 12 12 13 13 13 13 14 15 16 16 16 19 22 24 26 28 29 28 28 30 31 32 33 32 32 31 30 30 30 30 29 29 28 27 26 24 22 20 20 20 18 17 18 18 17 17 18 19 18 16 16 15 13 12 11 11 10 9 9 10 11 12 12
19 20 21 21 21 19 18 17 16 15 15 14 14 14 14 14 13 13 12 12 12 12 12 12 12 12 11 12 13 14 15 15 16 18 21 23 25 27 27 26 26 27 28 29 30 30 30 30 30 31 31 30 29 28 27 26 25 23 21 20 20 20 20 19 20 19 18 19 20 20 19 18 16 14 13 12 11 10 9 10 11 11 11 12 12
21 22 22 22 21 20 19 18 17 16 16 16 16 16 15 15 15 14 13 13 12 12 12 12 12 11 10 11 11 13 13 13 14 15 18 21 23 24 25 24 24 24 25 26 27 27 28 29 29 29 29 29 28 26 25 24 23 22 20 19 19 21 21 21 20 20 20 21 22 21 20 17 15 13 12 11 11 10 10 11 11 11 11 12 12
23 22 22 22 22 21 20 19 17 17 16 16 17 17 17 17 17 16 15 15 14 14 14 13 13 11 11 11 11 12 13 13 13 14 16 19 21 21 22 23 22 21 21 23 23 23 24 25 25 26 27 26 25 25 25 24 22 20 19 18 19 22 23 21 21 22 22 23 22 21 18 16 15 14 14 13 12 11 10 11 12 12 12 12 12
24 23 23 22 22 21 21 20 19 18 18 18 17 17 17 17 17 17 18 17 16 15 15 15 14 14 14 13 13 13 14 14 15 15 17 20 22 22 22 22 21 20 20 20 20 19 19 20 20 22 24 24 23 23 24 23 21 20 19 19 21 23 23 22 21 21 22 22 21 19 17 16 16 16 15 14 13 12 12 12 12 12 12 12 12
24 24 23 23 22 22 21 20 20 19 19 18 17 17 16 16 16 16 16 15 15 15 15 15 15 15 15 14 13 13 14 15 16 17 18 20 22 23 23 22 22 21 21 20 19 18 17 17 17 19 22 22 22 22 22 23 23 22 22 22 23 24 23 22 22 22 22 22 20 19 18 18 18 17 16 15 14 13 13 13 13 13 13 12 13
26 25 25 24 23 22 21 20 20 20 19 17 16 15 15 15 15 15 14 13 13 13 13 13 13 13 13 13 13 13 14 15 16 16 17 19 21 24 24 24 24 23 22 21 20 18 18 18 19 21 23 23 23 23 24 24 24 24 25 25 24 25 25 25 25 26 24 23 21 20 20 19 19 18 17 17 16 14 15 15 14 14 13 13 14
27 26 26 25 24 23 22 21 20 20 19 18 17 14 13 13 13 13 12 12 12 11 11 11 11 10 11 12 13 13 14 14 14 14 16 18 21 23 24 25 25 24 23 22 20 20 21 22 22 24 25 25 26 26 26 25 25 26 27 27 26 26 27 27 28 27 25 24 23 22 21 21 21 19 18 18 17 16 16 16 15 15 14 14 15
28 27 27 27 26 25 24 23 22 21 20 20 19 17 14 12 11 10 10 10 10 11 11 11 11 11 11 12 12 13 13 14 13 13 13 15 18 21 23 24 25 26 25 24 23 23 24 25 25 25 25 26 26 26 26 26 27 28 28 28 28 29 29 30 30 28 26 25 24 23 23 23 22 21 20 20 19 18 18 18 17 16 16 15 16
28 27 28 28 27 27 26 25 24 23 22 21 19 18 17 15 12 10 10 10 10 10 11 11 11 11 10 10 10 11 12 12 12 12 11 12 14 17 20 23 24 25 25 24 25 26 27 26 25 25 25 25 24 24 24 26 28 29 29 29 30 31 32 32 31 29 28 27 26 26 26 25 25 24 23 22 21 20 20 20 19 18 17 16 17
29 29 29 28 28 27 27 26 25 25 24 23 22 20 20 19 17 14 12 11 10 10 10 10 10 10 10 9 9 9 10 11 11 11 11 11 12 14 17 20 22 23 23 24 26 26 26 25 24 23 24 24 23 23 25 27 29 29 30 31 32 32 32 31 30 28 28 29 28 28 28 28 26 25 25 24 24 23 22 22 21 19 17 17 18
28 29 29 28 28 27 27 26 26 25 24 24 23 22 21 20 19 18 16 14 12 11 11 11 11 11 11 11 11 11 11 11 11 11 11 11 11 12 14 16 18 20 22 24 25 24 23 23 22 23 23 24 25 26 27 29 30 30 31 32 32 31 29 28 28 28 29 29 29 29 29 29 28 27 27 26 25 24 24 23 22 20 19 19 19
27 28 28 27 28 27 27 26 26 25 25 24 23 22 21 19 18 18 17 16 15 14 13 12 12 12 12 12 13 13 12 12 12 11 11 12 12 13 15 17 18 19 21 24 25 24 23 23 24 25 25 26 27 29 30 31 32 32 32 32 31 29 28 27 28 28 28 28 29 29 29 29 29 29 28 27 27 26 26 25 23 22 21 20 19
27 28 27 27 26 26 26 26 25 25 25 24 23 21 20 20 19 18 16 15 15 14 13 11 10 10 10 11 12 13 13 13 13 12 13 13 13 16 19 22 22 23 24 25 25 25 25 26 26 26 27 28 29 30 31 31 32 32 32 31 29 28 28 28 28 28 28 29 29 30 30 30 30 30 29 29 28 28 27 25 24 23 22 20 19
28 29 28 27 26 26 25 25 24 23 23 23 22 21 20 20 18 17 16 15 14 13 12 12 12 11 11 11 11 12 12 13 12 12 12 13 15 19 22 23 23 24 25 25 25 25 26 27 27 27 27 28 28 29 29 30 30 30 29 29 29 29 29 29 28 28 28 29 30 31 31 31 31 31 31 30 29 28 27 26 24 22 21 20 19
27 28 28 28 26 25 25 24 23 22 21 21 21 21 21 20 18 17 17 16 15 14 13 13 12 12 11 10 10 10 10 11 11 12 13 14 17 21 23 23 24 25 25 25 25 25 25 26 26 26 26 26 26 27 27 28 28 28 28 29 29 29 28 28 28 28 29 30 31 32 32 32 32 32 31 31 30 29 28 27 25 24 22 21 20
26 26 26 26 26 25 25 24 23 22 21 21 21 20 20 20 19 18 17 16 15 14 14 13 12 11 9 9 9 10 11 13 13 14 15 16 18 20 22 23 23 23 23 23 23 23 23 24 24 24 25 25 26 26 27 27 28 28 28 28 28 28 28 29 29 30 30 32 32 32 31 31 31 31 31 32 31 30 28 27 26 25 24 23 22
26 25 25 25 24 24 24 23 22 21 21 20 19 19 19 18 18 17 16 15 14 13 12 12 11 9 8 8 9 10 12 13 14 14 15 16 17 19 20 21 22 22 22 22 22 23 23 23 23 23 24 25 25 26 27 27 27 28 28 28 29 29 30 30 30 31 31 31 31 31 31 31 31 30 31 32 32 31 29 28 27 25 25 24 22
26 25 24 23 23 22 22 21 20 19 19 18 17 17 16 15 14 14 13 12 12 11 10 9 8 7 6 6 6 7 8 9 10 11 12 13 15 16 18 19 20 20 21 22 22 22 22 23 23 24 24 25 25 25 26 27 27 27 28 29 29 30 30 30 31 31 31 31 30 30 30 31 31 31 32 32 32 31 29 28 26 25 24 23 22
25 24 23 21 21 21 21 20 18 17 16 16 15 14 13 12 11 11 11 10 10 9 9 8 7 6 6 5 5 5 6 6 7 8 9 10 12 13 15 16 17 18 19 20 21 21 21 22 23 23 24 24 25 25 26 26 27 27 28 29 29 30 30 30 31 30 30 30 30 30 31 31 31 32 32 32 31 30 29 28 26 25 24 23 22
25 24 22 21 21 20 20 19 18 17 16 15 13 12 12 11 11 10 10 10 9 9 9 8 7 7 6 6 6 6 6 6 6 7 8 9 11 12 13 14 14 15 17 18 18 19 20 21 22 22 23 24 24 25 25 26 27 27 28 29 29 30 30 31 30 30 30 30 30 30 31 31 31 31 32 31 30 29 29 28 27 25 24 24 23
24 24 22 21 20 20 19 19 18 17 16 15 14 13 12 11 11 10 10 9 9 8 8 7 6 6 6 6 6 6 6 6 7 7 9 10 11 12 12 13 14 14 15 16 16 17 18 19 20 21 22 22 23 24 25 25 26 27 28 28 29 30 31 31 30 30 29 29 30 30 30 30 31 31 31 31 30 29 29 28 27 26 25 24 23
24 24 23 22 21 20 19 18 17 17 16 15 14 13 11 11 10 10 9 9 8 7 6 6 5 5 5 6 6 6 6 6 7 8 9 10 11 12 12 13 14 15 16 17 17 18 19 20 20 22 22 23 23 23 24 25 25 26 27 28 29 31 31 30 29 29 29 29 29 30 30 30 31 31 32 31 31 31 30 30 28 27 26 25 24
24 24 23 23 22 20 19 18 17 16 15 15 14 13 12 11 10 10 9 8 8 7 6 5 4 4 4 4 4 5 5 6 6 7 8 9 10 11 12 13 14 15 16 17 18 18 19 20 21 22 23 23 24 24 24 24 25 25 26 27 29 29 30 29 28 28 28 28 29 29 29 30 31 32 32 32 32 32 31 30 29 28 27 25 24
24 24 23 23 22 21 20 19 18 17 15 15 14 13 13 12 11 10 9 8 7 6 5 5 4 4 3 3 3 4 4 5 6 7 8 9 10 11 12 13 14 15 16 17 17 18 18 19 19 20 21 22 22 23 23 23 24 24 25 26 27 28 28 28 28 28 28 28 28 28 29 30 31 31 32 32 32 31 31 30 29 28 26 25 24
24 24 23 22 23 22 20 19 18 17 16 15 14 13 12 11 10 9 8 7 7 6 5 4 3 3 3 3 3 3 4 5 6 7 8 9 10 11 12 13 14 15 16 16 16 16 17 17 18 19 20 21 21 22 23 23 23 24 25 25 25 26 26 27 27 28 28 28 28 28 29 30 31 31 31 32 32 31 31 30 28 27 25 24 22
24 24 23 22 22 21 20 19 18 17 16 15 14 13 11 10 9 8 7 6 6 5 4 3 2 2 2 2 2 3 4 5 6 7 8 9 10 10 11 12 13 14 15 15 16 16 16 16 17 17 18 19 20 22 23 24 24 25 25 25 24 24 24 25 26 27 27 27 28 28 28 29 31 31 31 31 31 31 30 28 27 25 24 23 22
23 23 22 21 20 19 18 17 16 15 14 13 12 11 10 9 8 7 6 5 5 4 3 2 2 2 3 3 4 5 6 6 7 8 9 9 10 11 12 13 14 14 15 16 16 17 17 17 18 18 18 19 21 22 24 25 25 25 24 23 22 22 22 22 23 24 25 26 26 26 27 29 30 30 30 30 30 30 29 27 25 24 23 23 22
21 21 20 19 19 18 17 15 14 13 12 11 10 10 9 8 7 6 5 4 3 3 3 3 3 4 4 5 6 6 7 7 8 8 9 10 11 12 13 14 15 15 16 17 17 18 18 18 18 19 19 20 22 23 23 23 23 22 21 20 20 19 20 20 21 22 23 24 24 25 26 27 29 30 29 29 29 28 28 26 25 24 23 23 22
Wind_Direction
226 227 227 227 227 228 229 229 229 229 230 229 230 231 232 233 234 233 232 232 231 229 227 225 222 219 218 219 220 221 220 217 216 216 215 215 215 214 214 212 213 215 216 213 212 214 216 217 221 222 217 212 208 205 202 200 199 200 201 203 203 202 202 193 170 154 169 188 196 202 215 228 240 249 248 244 267 328 343 328 325 351 1 354 0
229 229 230 230 230 231 232 232 232 232 231 232 233 234 234 235 235 235 233 233 232 229 227 225 222 220 219 220 221 222 222 219 216 214 213 212 211 211 213 215 216 215 212 211 211 212 216 219 222 221 214 210 206 201 198 197 197 198 198 200 200 199 200 197 182 169 172 184 195 206 218 226 230 236 245 250 266 311 326 322 328 348 357 353 357
233 234 235 236 237 237 237 237 236 235 234 235 236 236 237 237 237 236 235 234 232 230 228 224 221 220 220 221 223 224 222 218 215 215 212 210 210 210 214 216 214 210 209 211 214 217 220 222 222 217 210 206 202 197 196 197 197 197 197 197 197 196 198 198 194 186 181 185 196 207 216 219 217 225 251 260 269 299 309 320 337 347 357 355 352
233 234 235 237 239 240 240 239 238 237 236 237 237 237 238 237 236 236 235 234 232 229 228 225 224 222 221 222 223 224 222 216 213 213 212 211 212 213 215 215 212 211 211 213 217 221 223 221 218 212 206 202 198 194 194 196 196 195 196 195 195 197 197 198 202 200 191 187 193 202 208 207 206 224 253 258 265 288 300 319 339 347 3 360 346
230 229 229 230 232 232 232 233 232 232 233 234 235 235 235 234 234 234 233 232 230 228 226 224 224 223 223 223 223 223 221 216 212 210 209 211 213 215 215 214 213 213 214 216 219 223 223 219 214 208 203 199 194 192 194 194 193 194 195 194 194 196 198 199 203 205 201 196 193 195 201 200 200 227 249 252 263 286 298 317 338 348 5 6 346
228 226 226 227 227 227 226 226 226 227 228 229 231 232 232 231 232 232 232 230 228 226 224 223 223 223 223 223 224 224 221 217 213 211 211 213 213 214 214 213 212 212 214 218 224 226 222 216 210 205 201 197 194 193 194 193 193 193 194 194 194 195 197 200 202 204 206 203 198 195 198 198 201 224 241 250 270 292 299 317 341 351 360 10 3
223 224 225 227 228 228 227 227 227 227 226 227 228 229 229 229 230 231 231 230 228 226 224 222 221 221 221 221 223 225 224 220 216 214 214 213 211 212 214 212 210 211 215 222 227 224 218 212 208 204 201 198 197 196 194 193 193 194 194 195 194 196 198 201 202 203 203 202 202 201 199 201 208 223 235 251 277 296 307 323 338 348 356 10 22
219 220 223 225 227 229 230 230 231 231 231 231 231 232 233 234 236 236 233 229 228 228 228 227 225 223 223 227 229 227 225 222 218 215 214 211 210 212 212 209 208 211 217 221 221 216 212 210 207 205 202 201 202 201 198 195 193 192 194 196 196 198 200 201 200 201 202 201 203 205 205 207 213 223 236 250 273 291 311 321 325 335 350 6 23
219 221 224 227 229 230 232 233 235 236 236 236 238 240 241 241 242 243 241 237 233 230 228 226 224 223 226 233 234 229 225 222 221 219 215 210 212 213 209 206 208 211 213 213 211 210 209 208 206 205 204 202 204 204 202 201 198 194 194 195 197 199 200 200 201 201 200 200 204 207 209 215 218 224 235 249 269 288 303 311 314 325 342 2 20
223 224 227 230 230 230 232 234 237 237 237 237 238 240 240 241 242 242 242 241 239 238 235 231 227 225 228 233 231 227 224 223 223 221 217 215 215 212 206 207 210 211 209 206 204 206 206 205 205 205 204 203 202 203 203 202 202 201 199 199 199 200 199 199 202 202 201 204 208 208 211 218 222 225 235 249 268 282 294 305 313 325 342 3 15
229 228 229 232 232 231 230 230 232 233 233 234 234 235 237 241 245 246 244 242 240 240 240 238 233 229 228 230 230 228 227 226 224 219 216 216 216 211 208 209 210 209 208 205 202 201 200 200 202 203 203 201 200 200 200 200 199 199 202 205 205 205 204 203 205 206 206 210 213 213 218 222 221 225 234 245 259 274 290 304 314 328 348 3 358
229 231 232 234 234 233 232 229 228 229 231 232 232 232 233 235 239 241 242 242 242 241 240 239 235 231 229 229 229 229 229 227 223 218 216 217 216 212 209 208 206 206 206 205 202 198 194 195 198 200 201 200 199 197 197 198 199 198 201 204 206 208 210 211 213 214 214 216 216 218 223 224 219 224 233 240 254 270 287 301 309 327 346 344 320
225 228 230 231 229 227 226 226 226 228 231 233 234 233 232 233 235 236 236 237 238 238 237 236 236 235 233 231 230 230 228 225 221 218 216 214 211 208 206 206 205 204 204 204 201 197 193 191 193 196 198 198 198 198 197 197 198 200 202 204 204 206 209 213 218 222 225 226 225 226 228 227 224 227 233 243 256 267 284 297 308 327 336 328 317
220 223 224 224 223 219 217 218 219 222 225 227 231 235 234 235 237 237 236 235 234 235 234 234 234 234 233 232 231 230 228 226 223 219 217 213 210 209 209 208 206 205 205 206 202 198 195 193 193 195 196 196 198 198 198 198 199 200 202 204 205 207 211 215 218 221 225 228 231 233 231 229 230 233 238 250 261 271 285 297 313 327 329 325 323
216 217 218 218 217 213 211 211 210 212 215 215 220 227 230 233 236 236 237 236 235 235 234 234 233 233 232 231 229 230 229 228 226 224 221 216 212 211 210 208 207 207 207 206 202 199 198 196 197 197 196 196 198 199 200 201 201 201 202 204 207 209 213 218 221 224 227 228 231 233 233 233 234 238 246 257 265 276 288 299 317 326 323 323 326
211 212 213 213 213 210 207 206 205 206 209 208 209 214 219 226 231 234 235 235 234 234 234 234 234 232 231 229 228 229 229 227 225 224 220 214 210 207 207 207 207 206 205 203 201 200 199 199 199 200 199 199 200 200 203 204 203 203 204 205 209 212 215 220 222 224 228 230 231 231 233 236 238 242 252 260 268 279 292 307 320 322 315 319 323
208 208 210 210 210 208 205 204 204 202 204 207 208 210 211 216 220 224 228 230 232 232 232 233 234 233 231 229 227 228 228 226 223 220 214 210 208 206 206 207 206 205 203 201 201 201 202 202 202 202 203 203 201 201 203 205 205 205 205 206 208 210 214 217 220 223 226 229 231 231 231 236 241 246 253 257 266 279 293 307 313 309 308 318 323
208 206 208 209 208 207 205 205 205 204 205 207 209 212 213 216 219 221 224 228 229 230 229 230 232 232 232 231 230 230 229 226 222 219 214 211 210 209 208 206 205 203 201 201 202 203 203 204 205 207 206 205 203 202 203 206 206 207 207 205 205 208 212 214 216 219 222 226 230 231 233 237 241 245 250 253 261 273 286 295 295 294 301 306 305
207 205 207 206 206 207 206 206 207 207 208 209 212 215 216 216 218 219 221 225 226 227 228 228 230 231 232 232 232 232 231 228 223 218 214 212 212 212 210 205 202 201 200 200 202 203 204 205 206 207 207 205 204 204 206 208 209 209 209 206 206 210 214 216 218 220 224 229 232 232 233 237 240 243 247 251 260 271 280 283 281 284 291 291 295
206 205 204 202 203 205 205 206 208 209 212 212 211 213 214 213 213 213 213 218 221 223 225 224 225 227 227 229 230 231 231 228 222 216 213 213 213 212 209 205 203 200 199 200 200 201 203 204 204 204 205 205 206 207 209 211 212 212 212 210 213 217 218 219 222 225 229 232 232 232 234 238 240 241 245 250 258 267 271 274 276 278 284 287 287
203 200 198 197 198 201 201 204 207 208 212 211 206 206 209 209 210 208 208 210 211 213 216 217 219 224 226 228 229 230 230 228 219 212 210 211 211 211 209 209 207 203 199 198 200 200 202 203 203 203 204 206 208 209 211 213 214 215 216 218 220 223 222 222 224 226 228 229 231 232 233 236 239 240 244 248 252 259 264 269 275 280 284 286 280
196 194 193 192 193 195 196 200 203 205 206 204 201 201 201 202 205 204 204 204 203 204 208 211 215 222 226 229 231 230 231 230 223 215 212 212 213 214 214 213 212 207 202 200 202 204 207 207 205 205 205 207 209 210 213 216 216 216 218 221 223 224 223 221 222 224 224 225 230 233 233 236 238 240 243 244 246 254 262 267 275 281 284 285 282
188 189 189 189 189 192 193 195 198 200 200 199 197 195 192 191 194 195 196 196 195 196 201 206 210 215 219 223 227 229 229 229 227 222 219 217 216 216 217 217 217 214 210 209 210 211 212 211 209 208 208 208 209 210 212 216 218 218 219 221 222 223 221 219 220 221 222 225 230 233 235 236 238 241 243 244 247 255 263 268 273 279 283 285 285
182 185 186 185 186 187 189 191 194 196 196 194 190 186 184 184 184 187 189 189 188 190 193 198 202 206 211 215 219 225 227 228 228 225 221 219 218 218 219 220 222 222 220 220 220 219 217 216 213 211 210 209 209 209 211 216 220 220 219 219 220 221 220 219 220 220 221 226 230 233 237 238 240 244 244 245 248 254 260 266 270 275 279 279 280
179 181 182 183 184 183 184 187 190 192 192 190 187 184 182 181 180 182 186 187 188 189 190 195 199 200 207 214 220 226 229 232 232 226 221 220 220 221 222 223 227 228 226 226 227 226 224 221 216 212 211 211 209 208 209 214 219 220 218 215 216 221 222 220 220 220 224 229 232 235 241 242 242 244 244 244 248 253 260 266 269 271 272 273 277
175 177 178 181 181 180 179 180 184 189 189 190 190 190 188 186 184 184 186 188 190 192 191 193 194 196 204 213 221 227 230 231 230 225 220 219 219 221 222 224 228 231 230 229 231 231 230 228 222 217 215 213 211 208 208 209 214 220 220 215 216 223 225 221 221 224 229 233 235 239 243 242 239 241 243 245 248 252 258 262 265 267 269 272 278
171 173 174 176 176 178 178 177 180 184 185 187 189 191 192 192 188 186 188 189 190 192 194 194 194 198 206 212 218 224 226 225 224 221 219 217 215 215 218 221 224 228 228 229 232 234 235 233 229 224 219 215 213 212 211 208 208 215 220 219 221 227 229 228 229 233 236 237 238 242 244 237 235 238 241 243 247 251 255 258 260 263 268 274 278
169 170 172 173 174 176 179 178 178 180 182 185 188 189 191 194 193 194 197 199 199 199 200 202 206 210 212 212 212 216 221 224 224 224 222 217 212 211 214 216 219 223 224 226 228 230 232 230 226 220 215 212 211 211 211 210 209 214 221 223 225 229 231 232 235 238 239 239 239 241 240 235 235 238 239 242 245 247 252 256 256 259 263 269 274
169 170 171 172 172 174 177 179 179 178 178 181 185 189 193 196 199 202 205 209 213 213 212 214 219 223 222 219 216 216 224 233 237 236 231 225 220 217 216 216 218 220 222 223 222 221 220 219 216 212 208 207 208 209 211 211 212 216 221 224 226 229 231 233 236 238 239 239 238 239 239 237 239 240 239 241 245 244 246 251 252 254 256 258 264
167 168 171 171 171 172 174 175 178 178 176 176 177 179 185 195 202 206 207 209 213 217 217 219 222 224 225 227 228 230 236 242 244 241 235 231 227 223 221 220 220 220 220 220 219 217 216 213 211 210 207 205 207 209 210 211 212 215 220 224 227 230 232 235 238 239 240 241 240 240 241 241 241 241 240 242 244 242 243 247 248 248 249 252 258
165 168 171 172 171 171 171 172 175 177 177 177 175 171 170 177 190 203 209 209 212 217 220 222 223 223 223 225 229 233 238 240 240 238 236 232 228 225 223 222 222 222 221 218 214 214 214 212 210 210 209 208 210 211 211 213 216 218 221 224 228 232 234 236 239 240 241 242 242 241 241 240 240 241 242 242 242 240 240 242 242 242 246 249 254
165 167 171 171 171 171 171 171 174 175 175 178 179 175 169 163 166 182 198 203 208 213 217 221 224 226 228 228 227 229 233 237 240 240 239 234 229 226 225 224 225 226 224 220 217 216 215 214 213 212 211 212 213 215 216 219 221 223 225 227 231 234 236 238 240 241 242 243 242 240 239 238 238 239 241 240 238 235 235 236 238 240 244 246 250
169 168 169 169 169 170 170 171 174 175 176 177 178 178 176 170 166 170 180 190 200 206 211 217 221 223 225 225 225 227 229 233 237 238 237 234 228 225 224 225 229 227 220 216 217 219 218 218 217 216 216 217 218 220 223 226 228 229 230 233 236 238 239 241 243 244 245 244 243 241 240 239 237 238 239 236 234 232 232 234 235 236 238 242 245
173 169 169 168 167 168 170 172 173 175 177 179 180 182 183 182 178 174 173 178 187 195 203 211 214 216 218 218 219 221 223 225 228 230 231 228 224 222 222 223 225 226 222 219 221 222 221 222 222 222 223 224 225 227 228 231 233 234 235 238 240 242 244 244 244 245 246 244 243 242 241 239 236 235 235 232 230 229 230 231 232 231 232 236 242
173 170 170 171 169 169 171 173 174 176 178 180 182 184 184 184 184 182 180 181 186 191 198 205 210 215 217 218 220 222 222 223 225 225 224 222 219 215 211 208 207 211 216 221 225 226 226 226 227 227 229 230 230 232 233 234 235 237 238 240 242 243 244 244 244 246 246 245 244 243 241 239 236 235 233 230 227 226 227 228 229 230 232 235 240
171 168 170 173 173 172 174 175 176 177 178 180 182 183 183 182 183 184 184 184 184 184 186 189 194 202 210 215 219 222 222 223 224 222 220 219 214 205 201 201 202 206 211 217 222 226 228 230 231 232 233 233 234 236 237 238 239 240 241 242 243 244 245 246 246 247 246 245 245 245 241 238 236 234 231 229 227 228 229 230 229 230 232 234 238
170 169 170 173 174 173 174 176 178 179 178 179 179 180 181 182 182 181 181 182 181 178 176 176 178 182 191 199 205 212 216 219 221 220 220 219 214 209 208 210 211 212 215 218 221 224 228 232 234 235 236 237 238 239 240 242 243 244 245 246 247 248 249 250 250 249 248 247 247 245 240 237 236 233 229 227 226 227 228 228 228 228 231 233 235
173 172 171 172 172 172 172 174 176 177 178 179 179 179 179 179 180 181 181 182 182 179 177 178 180 183 186 187 187 194 203 205 207 210 213 215 213 213 215 219 220 221 223 225 226 228 231 235 238 239 241 242 243 244 245 246 248 249 249 250 251 251 252 252 251 250 248 248 247 244 240 237 235 232 228 226 226 227 227 226 225 225 226 226 228
172 172 171 171 171 171 170 170 172 173 175 177 179 180 179 178 180 183 183 183 183 182 181 182 184 186 186 182 180 184 190 194 199 204 207 211 214 216 219 223 226 228 232 235 235 237 239 242 245 247 248 249 250 250 251 251 252 253 253 253 252 251 251 250 250 249 248 247 246 243 240 237 235 232 229 227 228 227 226 225 224 223 223 224 226
166 166 168 169 168 167 167 167 168 170 172 174 176 179 179 179 179 181 182 181 181 182 182 184 186 186 185 184 187 191 194 198 205 211 213 216 220 223 225 228 231 235 239 242 245 247 248 250 252 253 254 255 256 256 256 257 256 256 256 254 252 252 251 251 251 250 250 249 246 243 241 239 235 232 230 229 229 229 227 225 225 224 226 227 228
160 159 161 164 163 162 162 162 164 167 169 171 174 176 176 176 176 177 178 179 178 176 178 181 181 180 179 181 190 201 206 209 216 223 226 229 232 234 235 237 240 244 247 250 252 254 255 256 257 257 257 259 260 260 260 260 258 257 256 254 253 253 253 252 252 252 251 250 248 245 243 240 236 232 231 230 230 229 227 226 226 226 227 228 228
157 155 156 158 160 159 157 157 161 164 165 166 168 168 167 166 167 169 172 173 173 170 167 164 162 163 164 167 178 198 215 224 229 233 238 243 246 248 249 250 252 254 257 259 261 262 262 263 263 262 262 263 263 263 263 262 261 259 258 257 255 254 253 253 253 253 252 250 249 247 245 242 237 234 233 231 229 227 226 225 225 225 225 226 226
157 154 154 155 158 157 155 154 155 156 156 157 157 158 160 161 163 167 169 167 168 169 165 162 161 162 164 168 175 190 210 227 239 247 253 255 257 258 259 260 261 261 262 264 265 266 267 268 269 269 269 269 269 269 267 267 266 264 262 260 258 257 256 256 255 253 252 251 251 249 246 242 238 234 232 229 227 226 225 224 223 224 224 224 223
155 152 151 151 151 150 149 150 151 150 151 152 152 154 159 163 164 170 172 170 171 175 176 178 184 186 188 192 194 198 210 224 238 250 257 260 262 264 264 264 265 264 264 265 266 267 269 271 273 274 275 275 275 274 272 271 270 267 264 263 261 259 258 257 256 256 256 255 253 250 246 241 237 234 231 228 225 223 222 222 222 222 222 221 221
155 152 151 148 147 146 146 148 151 151 152 152 152 154 160 165 168 172 176 176 177 179 180 187 197 202 204 206 207 208 216 225 236 247 255 260 265 267 268 269 270 270 270 270 271 271 272 274 276 277 278 278 277 277 276 275 273 271 268 266 264 263 263 263 264 264 262 258 254 251 247 242 238 233 230 227 224 222 222 221 220 220 219 219 219
155 153 151 148 147 146 147 149 152 153 154 155 156 157 160 166 169 170 171 172 173 173 175 182 194 199 200 205 207 212 221 231 239 248 257 262 267 271 273 273 273 273 273 274 274 275 275 276 277 279 280 280 280 280 280 278 277 275 272 270 268 268 269 269 268 266 262 258 256 253 249 245 240 235 231 228 225 223 222 221 220 220 220 220 221
153 152 150 148 146 146 147 148 150 150 151 152 153 153 154 158 161 162 163 163 164 168 173 182 193 203 209 218 227 231 239 247 252 258 265 268 271 275 278 279 279 280 280 280 280 279 279 280 280 280 282 283 283 283 282 281 280 278 276 274 272 271 270 269 267 265 263 261 259 255 251 246 241 236 231 227 224 222 221 220 220 221 221 221 222
150 148 147 146 145 144 145 147 148 148 149 150 150 152 153 155 155 157 158 158 159 163 168 174 186 199 209 220 234 243 252 258 263 267 271 274 276 279 280 281 283 285 285 286 286 286 286 285 284 283 283 284 284 284 284 283 282 280 278 276 275 273 272 270 268 266 264 262 259 256 252 248 242 237 231 226 223 221 220 219 219 220 220 220 221
145 143 142 143 142 142 143 145 146 147 148 149 150 152 154 155 156 157 156 154 154 157 161 166 178 202 226 241 258 270 275 278 280 281 282 283 285 287 288 289 290 291 292 294 295 294 294 292 291 289 287 286 286 285 284 283 283 282 280 278 277 275 273 271 268 267 265 263 259 256 251 247 242 237 232 227 224 222 220 218 218 218 218 218 219
138 137 138 138 138 138 140 142 142 143 145 146 148 151 153 155 156 155 154 154 154 158 173 192 211 241 261 269 279 285 287 289 290 291 292 293 295 295 295 295 295 295 296 296 296 297 297 296 295 294 292 290 288 287 287 286 285 283 281 279 277 275 273 272 269 267 265 262 259 255 251 245 239 234 230 227 223 220 218 217 218 217 217 217 217
134 134 135 135 136 137 139 140 140 143 145 147 149 153 156 157 158 159 164 173 182 195 216 232 244 254 260 269 278 283 286 288 290 290 292 294 295 295 295 295 295 296 296 297 297 297 298 298 297 296 295 293 293 292 292 290 288 286 283 280 278 275 274 272 270 268 265 262 259 254 249 243 237 231 226 223 221 219 217 217 217 217 216 216 214